1486904401.03,21564,11.5,74108.5,4.97,-31.29,-32.01,0,*7A
1486904402.28,21565,11.5,74112.3,4.97,-31.29,-31.85,0,*74
1486904403.55,21566,11.5,74110.8,4.97,-30.89,-31.61,0,*76
1486904404.83,21567,11.5,74108.5,4.97,-30.77,-31.51,0,*75
1486904406.06,21568,11.5,74108.0,4.99,-30.55,-31.17,0,*76
1486904407.33,21569,11.5,74108.0,4.97,-30.95,-31.61,0,*74
1486904408.59,21570,11.5,74108.8,4.97,-31.61,-32.01,0,*73
1486904409.81,21571,11.5,74106.8,4.97,-31.45,-32.01,0,*74
1486904411.09,21572,11.5,74110.0,4.97,-31.61,-32.19,0,*78
1486904412.32,21573,11.5,74112.5,4.97,-31.79,-32.39,0,*72
1486904413.56,21574,11.5,74108.8,4.95,-31.29,-31.95,0,*77
1486904414.79,21575,11.5,74106.8,4.95,-31.45,-31.95,0,*7C
1486904416.03,21576,11.5,74110.8,4.95,-31.95,-32.51,0,*79
1486904417.24,21577,11.5,74110.5,4.95,-32.01,-32.57,0,*70
1486904418.5,21578,11.5,74110.5,4.93,-31.73,-32.35,0,*7B
1486904419.75,21579,11.5,74110.8,4.95,-31.85,-32.29,0,*78
1486904421.03,21580,11.5,74108.3,4.93,-31.51,-32.07,0,*7D
1486904422.28,21581,11.5,74108.8,4.93,-31.01,-31.57,0,*7F
1486904423.48,21582,11.5,74108.3,4.95,-31.29,-31.79,0,*7C
1486904424.74,21583,11.5,74108.8,4.93,-31.17,-31.51,0,*7C
1486904426.02,21584,11.5,74108.0,4.93,-31.11,-31.57,0,*7B
1486904427.3,21585,11.5,74108.0,4.93,-31.51,-32.07,0,*78
1486904428.54,21586,11.5,74108.8,4.95,-31.29,-31.95,0,*7A
1486904429.74,21587,11.5,74106.8,4.95,-31.29,-31.79,0,*79
1486904431.02,21588,11.5,74108.0,4.93,-31.51,-32.07,0,*75
1486904432.25,21589,11.5,74106.3,4.95,-31.05,-31.51,0,*73
1486904433.51,21590,11.5,74110.3,4.93,-31.29,-31.85,0,*7A
1486904434.71,21591,11.5,74112.5,4.95,-31.29,-31.79,0,*7E
1486904435.97,21592,11.5,74110.3,4.93,-31.29,-31.85,0,*78
1486904437.25,21593,11.5,74112.3,4.93,-31.57,-32.19,0,*76
1486904438.51,21594,11.5,74108.3,4.93,-31.57,-32.35,0,*7F
1486904439.77,21595,11.5,74110.0,4.93,-31.73,-32.39,0,*74
1486904441.05,21596,11.5,74112.3,4.91,-32.79,-33.49,0,*7A
1486904442.29,21597,11.5,74112.3,4.91,-32.35,-33.09,0,*77
1486904443.54,21598,11.5,74110.8,4.89,-32.07,-32.97,0,*76
1486904444.73,21599,11.5,74108.8,4.89,-32.23,-33.03,0,*7D
1486904445.98,21600,11.5,74112.8,4.87,-32.19,-33.03,0,*79
1486904447.21,21601,11.5,74110.3,4.87,-31.67,-32.51,0,*74
1486904448.41,21602,11.5,74110.5,4.89,-31.45,-32.23,0,*7C
1486904449.66,21603,11.5,74104.5,4.87,-31.51,-32.35,0,*71
1486904450.86,21604,11.5,74110.8,4.85,-31.79,-32.69,0,*77
1486904452.1,21605,11.5,74108.5,4.85,-31.79,-32.75,0,*7B
1486904453.29,21606,11.5,74108.5,4.85,-32.13,-33.03,0,*77
1486904454.54,21607,11.5,74110.5,4.87,-32.57,-33.61,0,*70
1486904455.8,21608,11.5,74112.8,4.85,-32.45,-33.43,0,*7E
1486904457.01,21609,11.5,74108.0,4.85,-32.29,-33.21,0,*71
1486904458.27,21610,11.5,74108.0,4.85,-31.95,-33.09,0,*77
1486904459.49,21611,11.5,74110.8,4.81,-32.57,-33.61,0,*71
1486904460.71,21612,11.5,74112.0,4.81,-33.09,-34.25,0,*7F
1486904461.96,21613,11.5,74108.3,4.81,-32.97,-34.01,0,*7E
1486904463.24,21614,11.5,74106.5,4.79,-32.79,-33.89,0,*79
1486904464.49,21615,11.5,74108.3,4.79,-32.79,-33.83,0,*72
1486904465.72,21616,11.5,74110.0,4.77,-32.79,-33.83,0,*7F
1486904466.95,21617,11.5,74108.8,4.77,-32.45,-33.37,0,*7E
1486904468.18,21618,11.5,74110.8,4.77,-32.69,-33.73,0,*7F
1486904469.43,21619,11.5,74110.5,4.77,-32.07,-32.97,0,*7D
1486904470.69,21620,11.5,74110.3,4.75,-32.69,-33.77,0,*72
1486904471.94,21621,11.5,74110.5,4.75,-32.91,-34.01,0,*72
1486904473.2,21622,11.5,74108.0,4.75,-34.19,-35.29,0,*7C
1486904474.42,21623,11.5,74110.0,4.73,-33.95,-35.07,0,*74
1486904475.68,21624,11.5,74110.0,4.73,-33.73,-34.53,0,*7B
1486904476.91,21625,11.5,74108.5,4.73,-33.73,-34.71,0,*7A
1486904478.13,21626,11.5,74110.8,4.69,-33.61,-34.59,0,*7B
1486904479.35,21627,11.5,74110.0,4.67,-33.37,-34.25,0,*7C
1486904480.6,21628,11.5,74110.5,4.67,-33.89,-34.77,0,*71
1486904481.85,21629,11.5,74110.0,4.67,-33.49,-34.25,0,*7B
1486904483.1,21630,11.5,74106.5,4.67,-32.75,-33.55,0,*7D
1486904484.32,21631,11.5,74108.3,4.65,-33.03,-33.89,0,*7F
1486904485.57,21632,11.5,74108.5,4.65,-32.85,-33.77,0,*72
1486904486.79,21633,11.5,74108.8,4.63,-33.37,-33.95,0,*71
1486904488.02,21634,11.5,74110.5,4.65,-33.61,-34.47,0,*7B
1486904489.27,21635,11.5,74108.3,4.63,-33.77,-34.47,0,*7B
1486904490.47,21636,11.5,74110.5,4.61,-33.95,-34.77,0,*75
1486904491.72,21637,11.5,74110.3,4.61,-33.49,-34.19,0,*7D
1486904492.97,21638,11.5,74108.0,4.61,-32.85,-33.61,0,*7B
1486904494.23,21639,11.5,74110.8,4.61,-33.09,-33.77,0,*78
1486904495.43,21640,11.5,74108.0,4.61,-33.95,-34.59,0,*78
1486904496.65,21641,11.5,74110.0,4.57,-34.01,-34.71,0,*7C
1486904497.9,21642,11.5,74108.8,4.57,-33.09,-33.77,0,*71
1486904499.15,21643,11.56,74114.3,4.55,-33.21,-33.89,0,*79
1486904500.38,21644,11.5,74110.8,4.53,-33.77,-34.47,0,*7E
1486904501.63,21645,11.5,74110.5,4.53,-32.97,-33.61,0,*73
1486904502.87,21646,11.5,74110.0,4.53,-32.97,-33.61,0,*70
1486904504.12,21647,11.5,74110.0,4.55,-33.21,-33.89,0,*7D
1486904505.38,21648,11.5,74110.5,4.53,-33.73,-34.31,0,*77
1486904506.6,21649,11.5,74108.0,4.53,-33.73,-34.25,0,*73
1486904507.85,21650,11.5,74110.5,4.53,-33.89,-34.53,0,*7F
1486904509.13,21651,11.56,74112.8,4.51,-34.65,-35.07,0,*79
1486904510.38,21652,11.5,74108.0,4.51,-34.07,-34.35,0,*7E
1486904511.65,21653,11.5,74110.5,4.47,-33.77,-34.19,0,*76
1486904512.87,21654,11.5,74110.0,4.49,-33.27,-33.95,0,*79
1486904514.1,21655,11.56,74114.3,4.47,-33.67,-34.13,0,*7B
1486904515.35,21656,11.56,74114.3,4.45,-33.31,-33.73,0,*78
1486904516.57,21657,11.5,74110.0,4.47,-34.13,-34.41,0,*7A
1486904517.8,21658,11.5,74106.0,4.45,-34.35,-34.77,0,*76
1486904519.03,21659,11.5,74108.5,4.45,-34.77,-35.07,0,*77
1486904520.25,21660,11.5,74110.5,4.45,-34.65,-35.17,0,*7F
1486904521.49,21661,11.5,74110.0,4.43,-35.29,-35.77,0,*77
1486904522.71,21662,11.5,74108.0,4.41,-34.83,-35.17,0,*71
1486904523.94,21663,11.5,74110.0,4.41,-34.31,-34.71,0,*78
1486904525.19,21664,11.5,74110.8,4.41,-33.43,-33.89,0,*7D
1486904526.41,21665,11.5,74106.0,4.41,-33.03,-33.27,0,*7C
1486904527.69,21666,11.5,74110.0,4.39,-33.43,-33.77,0,*71
1486904528.94,21667,11.56,74112.0,4.39,-33.49,-33.83,0,*71
1486904530.16,21668,11.5,74108.0,4.39,-33.83,-34.13,0,*76
1486904531.4,21669,11.5,74108.5,4.35,-33.61,-33.83,0,*79
1486904532.65,21670,11.56,74110.5,4.39,-33.95,-34.01,0,*7B
1486904533.89,21671,11.5,74110.5,4.35,-33.95,-34.35,0,*71
1486904535.14,21672,11.56,74110.3,4.35,-34.31,-34.71,0,*7B
1486904536.42,21673,11.5,74108.8,4.39,-34.35,-34.53,0,*72
1486904537.7,21674,11.5,74108.5,4.31,-34.35,-34.65,0,*78
1486904538.93,21675,11.5,74110.5,4.33,-34.41,-34.65,0,*78
1486904540.22,21676,11.5,74110.5,4.31,-34.19,-34.53,0,*71
1486904541.47,21677,11.5,74110.8,4.31,-34.25,-34.53,0,*7F
1486904542.68,21678,11.56,74108.3,4.29,-34.25,-34.47,0,*7C
1486904543.87,21679,11.56,74112.5,4.29,-33.95,-34.25,0,*75
1486904545.08,21680,11.5,74110.5,4.29,-33.83,-34.13,0,*71
1486904546.3,21681,11.56,74110.8,4.29,-34.07,-34.31,0,*7B
1486904547.55,21682,11.56,74110.0,4.27,-34.31,-34.53,0,*77
1486904548.77,21683,11.5,74110.5,4.29,-34.31,-34.41,0,*7B
1486904549.98,21684,11.5,74108.0,4.29,-33.37,-33.55,0,*7F
1486904551.22,21685,11.56,74108.0,4.27,-33.43,-33.61,0,*74
1486904552.44,21686,11.56,74108.3,4.27,-33.49,-33.67,0,*7B
1486904553.69,21687,11.5,74108.8,4.27,-33.27,-33.43,0,*74
1486904554.94,21688,11.5,74108.5,4.27,-33.49,-33.77,0,*74
1486904556.16,21689,11.5,74110.8,4.27,-33.37,-33.49,0,*71
1486904557.37,21690,11.56,74112.3,4.27,-33.95,-34.31,0,*79
1486904558.57,21691,11.5,74108.3,4.27,-33.67,-33.95,0,*7C
1486904559.79,21692,11.5,74110.5,4.27,-34.13,-34.31,0,*72
1486904561.0,21693,11.5,74108.0,4.27,-34.89,-35.23,0,*72
1486904562.21,21694,11.56,74108.3,4.23,-34.71,-35.01,0,*76
1486904563.42,21695,11.5,74108.0,4.23,-34.71,-35.13,0,*74
1486904564.65,21696,11.5,74110.0,4.23,-36.25,-36.43,0,*72
1486904565.87,21697,11.5,74108.3,4.19,-35.07,-35.17,0,*7B
1486904567.07,21698,11.56,74110.5,4.19,-33.95,-34.13,0,*7C
1486904568.29,21699,11.5,74110.0,4.19,-33.89,-34.13,0,*70
1486904569.5,21700,11.56,74110.8,4.19,-34.31,-34.41,0,*72
1486904570.76,21701,11.56,74110.8,4.19,-33.73,-33.89,0,*71
1486904572.01,21702,11.5,74108.0,4.17,-34.41,-34.65,0,*7F
1486904573.29,21703,11.56,74110.8,4.13,-34.83,-35.23,0,*77
1486904574.57,21704,11.5,74108.3,4.13,-34.31,-34.53,0,*7F
1486904575.81,21705,11.56,74108.3,4.13,-33.61,-33.83,0,*76
1486904577.04,21706,11.56,74112.8,4.13,-33.67,-33.83,0,*73
1486904578.26,21707,11.56,74110.3,4.13,-33.67,-33.83,0,*72
1486904579.51,21708,11.5,74108.5,4.13,-33.77,-33.95,0,*7B
1486904580.79,21709,11.56,74108.8,4.13,-34.95,-35.23,0,*7A
1486904582.05,21710,11.56,74112.5,4.09,-35.01,-35.35,0,*72
1486904583.27,21711,11.5,74104.0,4.11,-35.13,-35.35,0,*79
1486904584.5,21712,11.56,74114.5,4.09,-34.77,-34.77,0,*77
1486904585.79,21713,11.56,74110.0,4.09,-33.73,-33.89,0,*73
1486904586.99,21714,11.56,74114.3,4.07,-33.95,-34.13,0,*76
1486904588.21,21715,11.56,74110.8,4.07,-34.77,-34.83,0,*75
1486904589.44,21716,11.56,74108.0,4.07,-34.31,-34.47,0,*7C
1486904590.64,21717,11.56,74112.3,4.07,-34.25,-34.41,0,*7E
1486904591.89,21718,11.56,74110.5,4.05,-34.77,-34.83,0,*7A
1486904593.15,21719,11.56,74110.0,4.05,-34.77,-34.83,0,*7B
1486904594.4,21720,11.56,74110.0,4.03,-35.23,-35.41,0,*78
1486904595.67,21721,11.56,74108.3,4.01,-35.35,-35.65,0,*7A
1486904596.92,21722,11.56,74108.0,4.01,-35.07,-35.17,0,*7D
1486904598.18,21723,11.56,74112.0,4.01,-34.95,-35.17,0,*76
1486904599.44,21724,11.56,74108.0,3.99,-35.07,-35.35,0,*7D
1486904600.72,21725,11.56,74110.8,3.97,-34.31,-34.31,0,*73
1486904601.94,21726,11.5,74108.0,3.99,-34.25,-34.35,0,*7F
1486904603.19,21727,11.56,74108.0,3.99,-34.19,-34.35,0,*71
1486904604.39,21728,11.56,74110.3,3.99,-34.07,-34.25,0,*70
1486904605.66,21729,11.56,74110.8,3.97,-35.41,-35.65,0,*79
1486904606.91,21730,11.56,74110.8,3.97,-35.17,-35.35,0,*77
1486904608.19,21731,11.56,74108.8,3.97,-34.83,-34.83,0,*76
1486904609.48,21732,11.56,74110.8,3.97,-34.83,-34.95,0,*72
1486904610.73,21733,11.56,74108.5,3.95,-34.31,-34.47,0,*77
1486904611.93,21734,11.56,74108.3,3.93,-34.59,-34.77,0,*7B
1486904613.18,21735,11.56,74108.0,3.93,-34.53,-34.53,0,*76
1486904614.43,21736,11.5,74106.3,3.93,-34.35,-34.53,0,*75
1486904615.66,21737,11.56,74114.8,3.93,-34.47,-34.65,0,*74
1486904616.91,21738,11.56,74110.0,3.93,-34.53,-34.83,0,*76
1486904618.14,21739,11.56,74110.0,3.89,-35.07,-35.29,0,*7D
1486904619.38,21740,11.5,74108.5,3.89,-34.53,-34.71,0,*7F
1486904620.63,21741,11.56,74110.8,3.89,-34.35,-34.53,0,*7E
1486904621.82,21742,11.56,74112.5,3.89,-34.25,-34.41,0,*7F
1486904623.04,21743,11.56,74108.8,3.89,-34.19,-34.25,0,*73
1486904624.29,21744,11.56,74110.3,3.89,-34.19,-34.35,0,*75
1486904625.51,21745,11.56,74108.5,3.87,-33.83,-33.95,0,*73
1486904626.7,21746,11.56,74112.8,3.89,-34.25,-34.41,0,*7B
1486904627.97,21747,11.56,74112.5,3.87,-34.19,-34.35,0,*78
1486904629.17,21748,11.56,74110.5,3.89,-34.41,-34.59,0,*7E
1486904630.44,21749,11.56,74108.3,3.87,-34.53,-34.53,0,*78
1486904631.69,21750,11.56,74108.3,3.87,-34.07,-34.19,0,*7F
1486904632.91,21751,11.56,74108.3,3.87,-33.95,-33.95,0,*71
1486904634.13,21752,11.56,74110.0,3.87,-33.83,-33.83,0,*72
1486904635.35,21753,11.56,74110.3,3.87,-33.83,-33.83,0,*73
1486904636.59,21754,11.56,74110.8,3.87,-34.19,-34.25,0,*7B
1486904637.86,21755,11.56,74110.5,3.87,-34.19,-34.35,0,*7B
1486904639.13,21756,11.56,74114.0,3.87,-34.35,-34.53,0,*76
1486904640.35,21757,11.56,74110.0,3.85,-34.31,-34.59,0,*7B
1486904641.57,21758,11.56,74112.8,3.83,-34.25,-34.41,0,*7E
1486904642.79,21759,11.56,74110.3,3.85,-33.73,-33.83,0,*74
1486904644.07,21760,11.56,74108.5,3.83,-33.49,-33.73,0,*7E
1486904645.29,21761,11.56,74108.5,3.85,-33.83,-33.89,0,*7A
1486904646.53,21762,11.56,74108.5,3.85,-34.95,-35.01,0,*7F
1486904647.8,21763,11.56,74112.0,3.83,-34.83,-34.95,0,*73
1486904649.08,21764,11.56,74110.5,3.83,-34.95,-34.95,0,*73
1486904650.33,21765,11.56,74108.0,3.81,-34.35,-34.53,0,*70
1486904651.56,21766,11.56,74110.3,3.79,-34.41,-34.59,0,*7D
1486904652.81,21767,11.56,74110.0,3.79,-34.89,-34.95,0,*78
1486904654.06,21768,11.56,74110.3,3.79,-35.07,-35.13,0,*7F
1486904655.26,21769,11.56,74110.8,3.77,-35.13,-35.13,0,*75
1486904656.49,21770,11.56,74114.0,3.77,-35.07,-35.13,0,*78
1486904657.75,21771,11.56,74114.5,3.77,-34.53,-34.53,0,*7C
1486904659.0,21772,11.56,74108.0,3.77,-34.95,-35.07,0,*75
1486904660.2,21773,11.56,74114.3,3.77,-35.29,-35.47,0,*76
1486904661.46,21774,11.56,74108.8,3.77,-34.95,-34.95,0,*79
1486904662.74,21775,11.56,74110.3,3.75,-34.65,-34.65,0,*7A
1486904663.99,21776,11.56,74108.8,3.75,-34.77,-34.83,0,*72
1486904665.19,21777,11.56,74108.3,3.73,-34.47,-34.41,0,*78
1486904666.4,21778,11.56,74112.3,3.73,-34.77,-34.77,0,*71
1486904667.63,21779,11.56,74114.0,3.73,-34.83,-34.77,0,*7B
1486904668.9,21780,11.56,74110.5,3.71,-34.31,-34.31,0,*74
1486904670.15,21781,11.56,74110.5,3.73,-34.19,-34.19,0,*77
1486904671.38,21782,11.56,74114.8,3.71,-34.07,-34.07,0,*76
1486904672.64,21783,11.56,74110.8,3.71,-34.47,-34.65,0,*77
1486904673.91,21784,11.56,74110.5,3.71,-33.77,-33.89,0,*71
1486904675.18,21785,11.56,74106.8,3.71,-33.89,-33.89,0,*71
1486904676.4,21786,11.56,74108.8,3.71,-33.95,-33.95,0,*72
1486904677.63,21787,11.56,74114.3,3.71,-34.07,-34.07,0,*73
1486904678.86,21788,11.56,74110.5,3.71,-34.13,-34.13,0,*7C
1486904680.14,21789,11.56,74112.3,3.71,-35.07,-35.07,0,*7D
1486904681.39,21790,11.56,74108.0,3.65,-34.95,-35.07,0,*7A
1486904682.63,21791,11.56,74110.5,3.65,-34.95,-34.89,0,*7C
1486904683.86,21792,11.56,74114.0,3.65,-35.07,-35.13,0,*77
1486904685.09,21793,11.56,74110.3,3.65,-34.41,-34.19,0,*7E
1486904686.36,21794,11.56,74108.0,3.67,-34.35,-34.31,0,*72
1486904687.59,21795,11.56,74108.3,3.63,-34.77,-34.65,0,*70
1486904688.83,21796,11.56,74108.3,3.63,-34.65,-34.77,0,*73
1486904690.08,21797,11.56,74112.8,3.65,-34.31,-34.35,0,*73
1486904691.36,21798,11.56,74110.3,3.61,-34.65,-34.65,0,*7C
1486904692.58,21799,11.56,74108.3,3.63,-34.41,-34.35,0,*7C
1486904693.82,21800,11.56,74108.8,3.63,-34.19,-34.19,0,*70
1486904695.09,21801,11.56,74110.8,3.61,-34.35,-34.35,0,*73
1486904696.29,21802,11.56,74108.8,3.63,-34.41,-34.41,0,*72
1486904697.56,21803,11.56,74110.0,3.61,-34.19,-34.19,0,*71
1486904698.82,21804,11.56,74108.5,3.61,-34.35,-34.35,0,*76
1486904700.06,21805,11.56,74110.3,3.59,-34.47,-34.53,0,*79
1486904701.29,21806,11.56,74114.0,3.59,-34.47,-34.53,0,*7A
1486904702.52,21807,11.56,74112.0,3.57,-33.83,-33.95,0,*77
1486904703.75,21808,11.56,74112.0,3.59,-33.37,-33.31,0,*77
1486904704.98,21809,11.56,74114.0,3.59,-33.95,-33.89,0,*7D
1486904706.23,21810,11.56,74112.5,3.59,-33.73,-33.77,0,*7C
1486904707.49,21811,11.56,74108.3,3.59,-33.73,-33.73,0,*79
1486904708.68,21812,11.56,74108.5,3.59,-34.25,-34.13,0,*7F
1486904709.88,21813,11.56,74112.3,3.59,-33.95,-34.07,0,*77
1486904711.12,21814,11.56,74112.0,3.57,-34.59,-34.71,0,*78
1486904712.35,21815,11.56,74108.5,3.57,-34.77,-34.77,0,*73
1486904713.64,21816,11.56,74112.5,3.57,-34.53,-34.53,0,*70
1486904714.87,21817,11.56,74108.3,3.55,-33.95,-34.01,0,*79
1486904716.1,21818,11.56,74110.0,3.55,-33.77,-33.83,0,*77
1486904717.32,21819,11.56,74108.8,3.55,-33.77,-33.83,0,*76
1486904718.52,21820,11.56,74114.0,3.55,-33.83,-33.95,0,*70
1486904719.78,21821,11.56,74114.0,3.55,-34.01,-34.01,0,*76
1486904721.04,21822,11.56,74108.0,3.55,-33.77,-33.77,0,*75
1486904722.28,21823,11.56,74112.0,3.55,-34.31,-34.31,0,*74
1486904723.52,21824,11.56,74112.5,3.55,-34.01,-34.13,0,*70
1486904724.8,21825,11.56,74114.3,3.53,-34.01,-34.01,0,*74
1486904726.03,21826,11.56,74114.0,3.55,-34.01,-34.13,0,*72
1486904727.27,21827,11.56,74108.5,3.53,-34.59,-34.59,0,*76
1486904728.52,21828,11.56,74112.8,3.53,-34.41,-34.53,0,*7A
1486904729.75,21829,11.56,74112.0,3.53,-34.07,-34.25,0,*78
1486904731.0,21830,11.56,74112.8,3.53,-34.41,-34.35,0,*73
1486904732.29,21831,11.56,74114.0,3.53,-34.53,-34.53,0,*71
1486904733.55,21832,11.56,74114.3,3.53,-34.95,-35.01,0,*7E
1486904734.81,21833,11.56,74110.8,3.53,-34.95,-35.01,0,*7F
1486904736.05,21834,11.56,74112.0,3.49,-34.07,-33.95,0,*73
1486904737.32,21835,11.56,74110.5,3.49,-35.35,-35.35,0,*7E
1486904738.6,21836,11.56,74110.8,3.49,-35.41,-35.53,0,*7E
1486904739.82,21837,11.56,74108.5,3.43,-35.13,-35.23,0,*75
1486904741.05,21838,11.56,74112.3,3.43,-34.77,-34.65,0,*7A
1486904742.28,21839,11.56,74110.5,3.43,-33.55,-33.43,0,*7F
1486904743.51,21840,11.56,74110.3,3.43,-33.43,-33.37,0,*75
1486904744.74,21841,11.56,74108.3,3.43,-33.55,-33.27,0,*72
1486904745.97,21842,11.56,74112.3,3.45,-33.55,-33.37,0,*76
1486904747.19,21843,11.56,74108.3,3.45,-33.95,-33.95,0,*73
1486904748.42,21844,11.56,74108.8,3.45,-33.83,-33.95,0,*73
1486904749.62,21845,11.56,74112.5,3.43,-33.83,-33.83,0,*73
1486904750.87,21846,11.56,74112.8,3.43,-33.77,-33.77,0,*70
1486904752.16,21847,11.56,74114.0,3.45,-34.53,-34.65,0,*72
1486904753.36,21848,11.56,74114.0,3.43,-34.71,-34.89,0,*79
1486904754.62,21849,11.56,74108.5,3.45,-34.71,-34.95,0,*73
1486904755.88,21850,11.56,74114.0,3.43,-34.65,-34.53,0,*72
1486904757.12,21851,11.56,74110.3,3.41,-34.71,-34.77,0,*72
1486904758.41,21852,11.56,74114.5,3.41,-34.53,-34.53,0,*77
1486904759.6,21853,11.56,74112.8,3.39,-34.25,-34.41,0,*7B
1486904760.82,21854,11.56,74112.0,3.41,-34.25,-34.25,0,*71
1486904762.1,21855,11.56,74114.5,3.41,-34.35,-34.35,0,*70
1486904763.31,21856,11.63,74116.3,3.39,-35.01,-35.13,0,*7F
1486904764.54,21857,11.56,74112.0,3.39,-34.83,-35.01,0,*76
1486904765.8,21858,11.56,74110.5,3.37,-34.65,-34.59,0,*73
1486904767.04,21859,11.56,74112.0,3.37,-34.47,-34.47,0,*7D
1486904768.26,21860,11.56,74112.0,3.37,-34.07,-34.25,0,*77
1486904769.48,21861,11.56,74112.0,3.37,-34.41,-34.41,0,*76
1486904770.68,21862,11.56,74114.3,3.35,-33.95,-33.95,0,*77
1486904771.9,21863,11.56,74112.3,3.35,-33.89,-33.95,0,*7B
1486904773.16,21864,11.56,74112.5,3.37,-34.77,-34.83,0,*78
1486904774.36,21865,11.63,74116.3,3.35,-34.13,-34.13,0,*70
1486904775.62,21866,11.56,74114.8,3.35,-33.73,-33.89,0,*76
1486904776.86,21867,11.56,74108.3,3.35,-33.73,-33.67,0,*77
1486904778.05,21868,11.56,74114.3,3.35,-33.95,-34.25,0,*71
1486904779.28,21869,11.56,74114.0,3.35,-34.25,-34.31,0,*79
1486904780.5,21870,11.56,74108.8,3.35,-33.89,-33.95,0,*79
1486904781.72,21871,11.56,74108.3,3.35,-33.89,-33.95,0,*78
1486904782.97,21872,11.56,74110.3,3.35,-33.89,-33.89,0,*76
1486904784.19,21873,11.56,74112.3,3.35,-34.47,-34.47,0,*77
1486904785.42,21874,11.56,74112.3,3.33,-34.13,-33.95,0,*7F
1486904786.7,21875,11.56,74112.0,3.33,-33.73,-33.61,0,*74
1486904787.98,21876,11.56,74110.0,3.33,-34.31,-34.53,0,*70
1486904789.27,21877,11.56,74114.0,3.33,-33.77,-33.73,0,*71
1486904790.54,21878,11.56,74110.5,3.33,-34.19,-34.35,0,*74
1486904791.77,21879,11.56,74114.0,3.33,-33.83,-33.95,0,*7C
1486904793.04,21880,11.56,74112.5,3.33,-33.61,-33.61,0,*7D
1486904794.33,21881,11.56,74114.8,3.31,-33.49,-33.43,0,*74
1486904795.6,21882,11.56,74110.0,3.31,-33.49,-33.49,0,*7D
1486904796.86,21883,11.56,74112.5,3.33,-34.01,-34.13,0,*7D
1486904798.1,21884,11.56,74114.8,3.31,-33.67,-33.61,0,*7D
1486904799.37,21885,11.56,74110.8,3.33,-33.37,-33.43,0,*7B
1486904800.61,21886,11.56,74112.8,3.33,-33.37,-33.37,0,*7B
1486904801.89,21887,11.56,74112.5,3.31,-34.53,-34.53,0,*78
1486904803.14,21888,11.63,74112.5,3.31,-33.83,-33.77,0,*7C
1486904804.35,21889,11.56,74112.5,3.31,-34.25,-34.41,0,*74
1486904805.6,21890,11.56,74110.0,3.31,-33.67,-33.49,0,*72
1486904806.87,21891,11.56,74112.0,3.31,-33.61,-33.49,0,*75
1486904808.15,21892,11.56,74114.5,3.31,-33.43,-33.27,0,*7E
1486904809.39,21893,11.56,74114.0,3.31,-33.27,-33.15,0,*7C
1486904810.64,21894,11.56,74112.5,3.31,-33.67,-33.61,0,*7C
1486904811.88,21895,11.56,74112.5,3.31,-33.15,-33.09,0,*76
1486904813.12,21896,11.56,74112.3,3.31,-32.91,-32.97,0,*7E
1486904814.38,21897,11.56,74114.3,3.33,-32.91,-32.85,0,*7E
1486904815.61,21898,11.56,74114.0,3.33,-33.03,-32.91,0,*7E
1486904816.86,21899,11.63,74114.5,3.31,-33.43,-33.37,0,*74
1486904818.14,21900,11.63,74112.8,3.33,-34.01,-34.19,0,*7D
1486904819.39,21901,11.56,74112.5,3.33,-34.13,-34.31,0,*75
1486904820.65,21902,11.63,74118.3,3.33,-33.61,-33.55,0,*71
1486904821.91,21903,11.56,74112.5,3.33,-33.37,-33.43,0,*74
1486904823.18,21904,11.56,74114.0,3.33,-33.37,-33.43,0,*73
1486904824.41,21905,11.63,74114.0,3.33,-33.37,-33.37,0,*71
1486904825.7,21906,11.63,74116.3,3.33,-33.27,-33.43,0,*70
1486904826.97,21907,11.63,74114.5,3.31,-33.27,-33.31,0,*76
1486904828.2,21908,11.56,74114.3,3.33,-33.21,-33.21,0,*7C
1486904829.43,21909,11.63,74112.8,3.33,-33.21,-33.21,0,*7D
1486904830.68,21910,11.63,74114.8,3.31,-33.15,-33.27,0,*76
1486904831.91,21911,11.63,74112.3,3.35,-32.97,-33.15,0,*79
1486904833.17,21912,11.56,74114.8,3.33,-32.85,-33.03,0,*78
1486904834.45,21913,11.56,74114.5,3.33,-32.75,-32.85,0,*79
1486904835.74,21914,11.56,74112.0,3.33,-32.75,-32.85,0,*7E
1486904837.0,21915,11.63,74116.8,3.33,-33.03,-33.09,0,*7A
1486904838.26,21916,11.63,74114.8,3.35,-32.85,-32.85,0,*75
1486904839.51,21917,11.63,74114.8,3.37,-33.03,-32.97,0,*7A
1486904840.74,21918,11.63,74114.3,3.35,-33.31,-33.21,0,*7A
1486904841.94,21919,11.56,74112.3,3.35,-33.55,-33.67,0,*7B
1486904843.18,21920,11.56,74114.0,3.35,-33.37,-33.31,0,*76
1486904844.43,21921,11.56,74112.5,3.35,-33.31,-33.31,0,*71
1486904845.72,21922,11.56,74112.5,3.33,-33.27,-33.27,0,*74
1486904846.97,21923,11.56,74112.8,3.37,-33.21,-33.31,0,*70
1486904848.17,21924,11.63,74116.3,3.35,-33.03,-33.15,0,*73
1486904849.43,21925,11.63,74112.0,3.35,-32.85,-32.85,0,*75
1486904850.67,21926,11.63,74114.3,3.35,-32.63,-32.51,0,*77
1486904851.9,21927,11.63,74114.8,3.35,-32.63,-32.51,0,*76
1486904853.16,21928,11.63,74112.8,3.35,-32.63,-32.79,0,*73
1486904854.41,21929,11.63,74112.0,3.35,-32.63,-32.63,0,*79
1486904855.7,21930,11.63,74112.8,3.37,-32.79,-32.85,0,*70
1486904856.92,21931,11.56,74110.5,3.39,-33.03,-32.97,0,*70
1486904858.17,21932,11.56,74114.0,3.39,-33.09,-32.97,0,*79
1486904859.43,21933,11.63,74114.5,3.37,-33.31,-33.37,0,*76
1486904860.63,21934,11.63,74114.5,3.35,-33.15,-33.15,0,*75
1486904861.88,21935,11.56,74114.3,3.37,-33.31,-33.21,0,*77
1486904863.11,21936,11.63,74116.3,3.37,-33.21,-33.21,0,*75
1486904864.34,21937,11.56,74114.3,3.37,-33.03,-33.03,0,*74
1486904865.54,21938,11.56,74112.3,3.35,-33.03,-33.15,0,*7E
1486904866.79,21939,11.56,74114.3,3.39,-32.97,-33.09,0,*72
1486904868.05,21940,11.63,74118.5,3.39,-33.49,-33.43,0,*70
1486904869.28,21941,11.63,74112.8,3.37,-34.07,-34.13,0,*70
1486904870.51,21942,11.63,74112.5,3.37,-33.37,-33.21,0,*71
1486904871.73,21943,11.63,74116.3,3.37,-34.25,-34.41,0,*75
1486904873.01,21944,11.63,74114.0,3.37,-33.77,-33.89,0,*71
1486904874.23,21945,11.63,74114.8,3.35,-32.97,-33.15,0,*78
1486904875.46,21946,11.63,74114.5,3.37,-33.21,-33.21,0,*72
1486904876.72,21947,11.63,74112.0,3.35,-33.73,-33.73,0,*71
1486904877.96,21948,11.63,74114.5,3.35,-33.49,-33.37,0,*77
1486904879.19,21949,11.63,74114.3,3.35,-33.73,-33.55,0,*7B
1486904880.44,21950,11.63,74116.3,3.37,-33.89,-33.95,0,*78
1486904881.66,21951,11.63,74114.8,3.35,-33.77,-33.95,0,*7A
1486904882.92,21952,11.63,74114.8,3.35,-33.31,-33.31,0,*75
1486904884.15,21953,11.63,74110.8,3.37,-33.67,-33.55,0,*77
1486904885.36,21954,11.63,74114.0,3.35,-33.37,-33.37,0,*73
1486904886.59,21955,11.63,74114.5,3.37,-33.67,-33.67,0,*70
1486904887.8,21956,11.63,74114.0,3.35,-33.37,-33.37,0,*71
1486904889.03,21957,11.63,74114.8,3.35,-33.55,-33.49,0,*7D
1486904890.23,21958,11.63,74116.8,3.35,-33.67,-33.55,0,*7E
1486904891.47,21959,11.63,74114.0,3.35,-33.37,-33.49,0,*77
1486904892.72,21960,11.63,74116.8,3.37,-33.37,-33.49,0,*7F
1486904893.95,21961,11.63,74112.3,3.35,-33.67,-33.49,0,*79
1486904895.21,21962,11.63,74114.8,3.35,-33.49,-33.49,0,*76
1486904896.42,21963,11.63,74114.0,3.35,-33.03,-33.03,0,*77
1486904897.62,21964,11.56,74112.0,3.35,-33.03,-33.15,0,*77
1486904898.83,21965,11.63,74114.8,3.35,-33.37,-33.37,0,*71
1486904900.06,21966,11.63,74114.0,3.35,-33.67,-33.49,0,*7E
1486904901.32,21967,11.63,74118.0,3.37,-33.37,-33.31,0,*77
1486904902.57,21968,11.63,74114.8,3.37,-33.37,-33.49,0,*77
1486904903.81,21969,11.63,74114.3,3.35,-33.37,-33.31,0,*7B
1486904905.04,21970,11.63,74114.8,3.35,-33.49,-33.21,0,*7B
1486904906.25,21971,11.63,74114.8,3.35,-33.03,-33.03,0,*74
1486904907.46,21972,11.63,74114.0,3.35,-33.37,-33.37,0,*77